TimeEDT,TemperatureF,Dew PointF,Humidity,Sea Level PressureIn,VisibilityMPH,Wind Direction,Wind SpeedMPH,Gust SpeedMPH,PrecipitationIn,Events,Conditions,WindDirDegrees,DateUTC
12:54 AM,69.1,66.0,90,29.91,10.0,Calm,Calm,-,N/A,,Overcast,0,2013-06-03 04:54:00
1:54 AM,68.0,66.0,93,29.91,10.0,Calm,Calm,-,N/A,,Overcast,0,2013-06-03 05:54:00
2:54 AM,68.0,66.0,93,29.90,10.0,Calm,Calm,-,N/A,,Overcast,0,2013-06-03 06:54:00
3:30 AM,68.0,66.2,94,29.92,10.0,Calm,Calm,-,0.00,Rain,Light Rain,0,2013-06-03 07:30:00
3:54 AM,68.0,64.9,90,29.88,10.0,Calm,Calm,-,0.01,,Overcast,0,2013-06-03 07:54:00
4:42 AM,66.2,64.4,94,29.91,10.0,Calm,Calm,-,N/A,,Mostly Cloudy,0,2013-06-03 08:42:00
4:54 AM,66.9,64.9,93,29.88,10.0,Calm,Calm,-,N/A,,Mostly Cloudy,0,2013-06-03 08:54:00
5:54 AM,66.9,64.9,93,29.89,10.0,Calm,Calm,-,N/A,,Overcast,0,2013-06-03 09:54:00
6:07 AM,66.2,64.4,94,29.93,10.0,Calm,Calm,-,N/A,,Overcast,0,2013-06-03 10:07:00
6:54 AM,68.0,64.9,90,29.90,10.0,Calm,Calm,-,N/A,,Overcast,0,2013-06-03 10:54:00
7:54 AM,68.0,64.9,90,29.91,10.0,SW,4.6,-,N/A,,Overcast,220,2013-06-03 11:54:00
8:54 AM,70.0,64.9,84,29.92,10.0,West,4.6,-,N/A,,Mostly Cloudy,270,2013-06-03 12:54:00
9:54 AM,73.0,64.0,73,29.91,10.0,WSW,6.9,-,N/A,,Scattered Clouds,240,2013-06-03 13:54:00
10:18 AM,73.4,62.6,69,29.95,10.0,West,4.6,-,N/A,,Mostly Cloudy,270,2013-06-03 14:18:00
10:54 AM,75.9,62.1,62,29.91,10.0,WNW,8.1,-,N/A,,Mostly Cloudy,290,2013-06-03 14:54:00
11:01 AM,75.2,60.8,61,29.94,10.0,WNW,8.1,-,N/A,,Scattered Clouds,290,2013-06-03 15:01:00
11:54 AM,78.1,60.1,54,29.91,10.0,Calm,Calm,-,N/A,,Scattered Clouds,0,2013-06-03 15:54:00
12:54 PM,79.0,60.1,52,29.89,10.0,NNW,8.1,-,N/A,,Scattered Clouds,330,2013-06-03 16:54:00
1:54 PM,78.1,61.0,56,29.88,10.0,NW,10.4,-,0.00,Rain,Light Rain,310,2013-06-03 17:54:00
2:54 PM,75.0,61.0,62,29.90,10.0,West,15.0,-,0.00,Rain,Light Rain,280,2013-06-03 18:54:00
3:54 PM,75.0,59.0,57,29.90,10.0,WNW,12.7,20.7,0.00,,Mostly Cloudy,300,2013-06-03 19:54:00
4:54 PM,78.1,57.0,48,29.88,10.0,NW,11.5,-,N/A,,Mostly Cloudy,310,2013-06-03 20:54:00
5:54 PM,79.0,57.9,48,29.87,10.0,NNW,5.8,-,N/A,,Partly Cloudy,340,2013-06-03 21:54:00
6:54 PM,75.9,57.9,54,29.88,10.0,NW,6.9,-,N/A,,Partly Cloudy,320,2013-06-03 22:54:00
7:54 PM,75.0,59.0,57,29.91,10.0,NNW,5.8,-,N/A,,Partly Cloudy,330,2013-06-03 23:54:00
8:54 PM,70.0,59.0,68,29.92,10.0,NW,8.1,-,N/A,,Partly Cloudy,310,2013-06-04 00:54:00
9:54 PM,68.0,57.9,70,29.95,10.0,NW,6.9,-,N/A,,Clear,320,2013-06-04 01:54:00
10:54 PM,70.0,55.9,61,29.98,10.0,NNW,3.5,-,N/A,,Clear,340,2013-06-04 02:54:00
11:54 PM,66.9,55.9,68,29.99,10.0,WNW,6.9,-,N/A,,Clear,300,2013-06-04 03:54:00